Miscellaneous Local Product
Issued by NWS Hastings, NE

Home | Current Version | Previous Version | Graphics & Text | Print | Product List | Glossary On
Versions: 1 2 3 4 5 6 7 8 9 10 11 12 13 14 15 16 17 18 19 20 21 22 23 24 25 26 27 28 29 30 31 32 33 34 35 36 37 38 39 40 41 42 43 44 45 46 47 48 49 50
000
AXUS43 KGID 311302
MISGRI

GID CWA HOURLY WEATHER ROUNDUP
NATIONAL WEATHER SERVICE HASTINGS NE
800 AM CDT FRI JUL 31 2015

NOTE: "FAIR" INDICATES FEW OR NO CLOUDS BELOW 12,000 FEET WITH NO
SIGNIFICANT WEATHER AND/OR OBSTRUCTIONS TO VISIBILITY.

...SOUTH CENTRAL NEBRASKA...

CITY           SKY/WX    TMP DP  RH WIND       PRES   REMARKS
GRAND ISLAND   SUNNY     73  67  81 W6        30.20R
HASTINGS       SUNNY     70  67  90 SW5       30.20S
KEARNEY        MOSUNNY   72  64  78 SW7       30.20R
ORD            SUNNY     67  64  90 CALM      30.18R
YORK           SUNNY     70  68  94 CALM      30.19R
AURORA         SUNNY     70  69  97 CALM      30.19R
LEXINGTON      MOSUNNY   66  65  94 SW5       30.21S
HOLDREGE       SUNNY     70  66  88 CALM      30.21S
HEBRON         SUNNY     72  66  82 W5        30.18S

...NEBRASKA PANHANDLE...

CITY           SKY/WX    TMP DP  RH WIND       PRES   REMARKS
CHADRON        SUNNY     58  52  80 CALM      30.24R
ALLIANCE       SUNNY     56  53  90 W3        30.26S
SCOTTSBLUFF    SUNNY     62  59  90 E3        30.27R
SIDNEY         SUNNY     61  58  90 SW3       30.31R

...WESTERN AND NORTH CENTRAL NEBRASKA...

CITY           SKY/WX    TMP DP  RH WIND       PRES   REMARKS
VALENTINE      SUNNY     63  54  72 CALM      30.20R
AINSWORTH      SUNNY     68  59  72 SW3       30.20S
ONEILL         SUNNY     69  65  90 CALM      30.18R
BROKEN BOW     SUNNY     69  64  84 CALM      30.21R
IMPERIAL       SUNNY     63  57  81 CALM      30.26R
NORTH PLATTE   SUNNY     66  62  87 CALM      30.23R
MCCOOK         SUNNY     67  64  90 CALM      30.23R

...EASTERN NEBRASKA...

CITY           SKY/WX    TMP DP  RH WIND       PRES   REMARKS
NORFOLK        SUNNY     70  65  84 S6        30.15R
SO SIOUX CITY  SUNNY     68  64  87 S5        30.15R
TEKAMAH        SUNNY     70  64  81 SE3       30.14R
COLUMBUS       SUNNY     72  64  78 S6        30.17S
ALBION         SUNNY     68  64  87 CALM      30.18R
OMAHA EPPLEY   MOSUNNY   75  64  68 CALM      30.14R
OFFUTT AFB     SUNNY     73  65  77 W5        30.14R
MILLARD        SUNNY     70  67  89 CALM      30.15S
LINCOLN        SUNNY     72  66  81 SE7       30.19R
NEBRASKA CITY  MOSUNNY   69  64  85 NW3       30.19R
BEATRICE       SUNNY     69  64  86 CALM      30.19S
FALLS CITY     SUNNY     70  65  84 S5        30.17F

...NORTHERN KANSAS...

CITY           SKY/WX    TMP DP  RH WIND       PRES   REMARKS
GOODLAND       SUNNY     63  61  93 W3        30.28S FOG
HILL CITY      SUNNY     71  69  93 CALM      30.22S
NORTON         SUNNY     70  64  83 SW7       30.22R
PHILLIPSBURG   SUNNY     72  72 100 CALM      30.21R
SMITH CENTER   SUNNY     72  68  88 SW3       30.21R
HAYS           MOSUNNY   68  61  77 CALM      30.21S
RUSSELL        SUNNY     70  69  97 SW5       30.20R
CONCORDIA      SUNNY     72  68  87 W5        30.19S
SALINA         SUNNY     71  67  87 CALM      30.19S
TOPEKA         SUNNY     68  65  90 CALM      30.19R



USA.gov is the U.S. government's official web portal to all federal, state and local government web resources and services.